TimeEST,TemperatureF,Dew PointF,Humidity,Sea Level PressureIn,VisibilityMPH,Wind Direction,Wind SpeedMPH,Gust SpeedMPH,PrecipitationIn,Events,Conditions,WindDirDegrees,DateUTC
12:56 AM,54.0,50.0,86,29.96,10.0,SW,12.7,19.6,N/A,,Scattered Clouds,220,2012-12-05 05:56:00
1:56 AM,53.1,48.9,86,29.94,10.0,SW,9.2,-,N/A,,Mostly Cloudy,220,2012-12-05 06:56:00
2:56 AM,53.1,48.9,86,29.92,10.0,SW,11.5,-,N/A,,Overcast,220,2012-12-05 07:56:00
3:56 AM,54.0,50.0,86,29.90,10.0,SW,13.8,19.6,0.00,,Overcast,220,2012-12-05 08:56:00
4:56 AM,53.1,48.9,86,29.91,10.0,WSW,8.1,-,0.00,,Overcast,250,2012-12-05 09:56:00
5:56 AM,53.1,48.9,86,29.92,10.0,West,8.1,-,N/A,,Overcast,270,2012-12-05 10:56:00
6:56 AM,54.0,48.9,83,29.94,10.0,WNW,9.2,-,N/A,,Overcast,290,2012-12-05 11:56:00
7:56 AM,53.1,44.1,71,29.96,10.0,NW,11.5,-,N/A,,Overcast,310,2012-12-05 12:56:00
9:56 AM,55.9,39.9,55,29.99,10.0,NW,18.4,21.9,N/A,,Mostly Cloudy,310,2012-12-05 14:56:00
10:56 AM,54.0,37.9,55,29.98,10.0,WNW,12.7,20.7,N/A,,Mostly Cloudy,300,2012-12-05 15:56:00
11:56 AM,52.0,36.0,54,29.97,10.0,WNW,16.1,23.0,N/A,,Mostly Cloudy,300,2012-12-05 16:56:00
12:56 PM,54.0,34.0,47,29.96,10.0,NW,19.6,27.6,N/A,,Mostly Cloudy,320,2012-12-05 17:56:00
1:56 PM,54.0,33.1,45,29.97,10.0,WNW,16.1,23.0,N/A,,Mostly Cloudy,300,2012-12-05 18:56:00
2:56 PM,53.1,30.9,43,29.98,10.0,WNW,15.0,24.2,N/A,,Scattered Clouds,300,2012-12-05 19:56:00
3:56 PM,50.0,30.0,46,30.00,10.0,NW,16.1,26.5,N/A,,Partly Cloudy,320,2012-12-05 20:56:00
4:56 PM,46.9,27.0,46,30.04,10.0,NW,18.4,26.5,N/A,,Partly Cloudy,310,2012-12-05 21:56:00
5:56 PM,45.0,25.0,46,30.08,10.0,NW,19.6,28.8,N/A,,Partly Cloudy,320,2012-12-05 22:56:00
6:56 PM,42.1,19.9,41,30.09,10.0,NW,20.7,26.5,N/A,,Partly Cloudy,320,2012-12-05 23:56:00
7:56 PM,41.0,19.9,43,30.13,10.0,WNW,10.4,-,N/A,,Partly Cloudy,300,2012-12-06 00:56:00
8:56 PM,39.0,21.0,49,30.13,10.0,NW,12.7,-,N/A,,Scattered Clouds,310,2012-12-06 01:56:00
9:56 PM,39.0,21.0,49,30.16,10.0,NNW,17.3,23.0,N/A,,Scattered Clouds,330,2012-12-06 02:56:00
10:56 PM,37.0,19.9,50,30.18,10.0,NNW,12.7,23.0,N/A,,Scattered Clouds,330,2012-12-06 03:56:00
11:56 PM,36.0,19.0,50,30.18,10.0,NNW,11.5,21.9,N/A,,Scattered Clouds,340,2012-12-06 04:56:00